Location: ShareBrained
(45.5589°N, 122.6491°W)
Time: 07:51:17
(UTC-08:00)

NOAA 19 - Pass Details

Date: 24 January 2020
Orbit: 840 x 861 km, 99.2° (Epoch: 25 February)

Event Time Altitude Azimuth Distance (km) Brightness Sun altitude
Rises 04:47:12 0° 29° (NNE) 3,407 8.8 -30.2°
Reaches altitude 10° 04:50:23 10° 49° (NE) 2,466 8.2 -29.6°
Maximum altitude 04:54:02 18° 91° (E) 1,955 7.9 -29.0°
Drops below altitude 10° 04:57:39 10° 133° (SE) 2,455 8.1 -28.3°
Sets 05:00:47 0° 152° (SSE) 3,386 8.7 -27.8°
